Simultaneous Nadir Overpasses (SNOs) Predictions

Prediction of SNOs between AURA and LANDSAT-8 Satellite Orbit:

Table of predicted SNOs for the next 14.0 days since TLE Epoch: 4/12/2025
Index Date (AURA) Time (AURA) Lat,Lon (AURA) SZA (AURA ) Date (LANDSAT-8) Time (LANDSAT-8) Lat,Lon (LANDSAT-8) SZA (LANDSAT-8 ) Distance(km) Time Diff (sec)
1 04/22/2025 11:29:59 -73.06,-169.48 119.38 04/22/2025 11:28:51 -73.01,-171.34 119.46 60.42 68
2 04/22/2025 12:19:22 73.17, -2.04 60.72 04/22/2025 12:18:13 73.18, -3.36 60.71 42.32 69
3 04/22/2025 13:08:47 -73.47, 164.99 119.00 04/22/2025 13:07:35 -73.48, 164.90 119.00 3.05 72
4 04/22/2025 13:58:08 73.48, -27.36 61.00 04/22/2025 13:57:00 73.49, -27.43 61.01 2.71 68
5 04/22/2025 14:47:28 -73.52, 140.22 118.98 04/22/2025 14:46:27 -73.53, 140.29 118.97 2.42 61
6 04/22/2025 15:36:49 73.53, -52.13 61.02 04/22/2025 15:35:52 73.54, -52.04 61.04 3.20 57
7 04/22/2025 16:26:08 -73.52, 115.57 119.00 04/22/2025 16:25:20 -73.53, 115.56 118.99 1.56 48
8 04/22/2025 17:15:29 73.52, -76.79 61.00 04/22/2025 17:14:45 73.54, -76.77 61.01 2.07 44
9 04/22/2025 18:04:48 -73.51, 90.91 119.03 04/22/2025 18:04:13 -73.53, 90.84 119.02 2.81 35
10 04/22/2025 18:54:09 73.52,-101.44 60.97 04/22/2025 18:53:38 73.54,-101.49 60.99 2.66 31
11 04/22/2025 19:43:29 -73.56, 66.14 119.01 04/22/2025 19:43:05 -73.58, 66.23 118.99 3.45 24
12 04/22/2025 20:32:50 73.57,-126.21 60.99 04/22/2025 20:32:31 73.54,-126.22 60.96 3.40 19
13 04/22/2025 21:22:09 -73.56, 41.48 119.03 04/22/2025 21:21:58 -73.58, 41.50 119.01 2.37 11
14 04/22/2025 22:11:30 73.56,-150.87 60.97 04/22/2025 22:11:23 73.59,-150.83 60.99 2.96 7
15 04/22/2025 23:00:49 -73.55, 16.82 119.06 04/22/2025 23:00:51 -73.58, 16.78 119.04 2.83 2
16 04/22/2025 23:50:10 73.56,-175.53 60.94 04/22/2025 23:50:16 73.59,-175.55 60.97 2.89 6
17 04/23/2025 00:39:30 -73.60, -7.95 119.03 04/23/2025 00:39:44 -73.57, -7.95 119.06 3.12 14
18 04/23/2025 01:28:51 73.61, 159.70 60.97 04/23/2025 01:29:09 73.58, 159.72 60.94 2.94 18
19 04/23/2025 02:18:10 -73.60, -32.61 119.06 04/23/2025 02:18:36 -73.62, -32.56 119.03 3.23 26
20 04/23/2025 03:07:31 73.61, 135.04 60.94 04/23/2025 03:08:02 73.58, 135.00 60.92 2.95 31
21 04/23/2025 03:56:50 -73.60, -57.27 119.09 04/23/2025 03:57:29 -73.62, -57.28 119.06 3.09 39
22 04/23/2025 04:46:11 73.60, 110.38 60.92 04/23/2025 04:46:54 73.63, 110.39 60.95 3.31 43
23 04/23/2025 05:35:31 -73.64, -82.04 119.06 04/23/2025 05:36:22 -73.62, -82.01 119.08 2.74 51
24 04/23/2025 06:24:52 73.65, 85.61 60.94 04/23/2025 06:25:47 73.63, 85.66 60.92 2.88 55
25 04/23/2025 07:14:11 -73.64,-106.70 119.09 04/23/2025 07:15:15 -73.62,-106.73 119.11 2.68 64
26 04/23/2025 08:03:32 73.65, 60.95 60.91 04/23/2025 08:04:40 73.63, 60.94 60.90 2.25 68
27 04/23/2025 08:52:54 -73.79,-131.70 118.96 04/23/2025 08:54:05 -73.77,-131.12 118.97 18.09 71
28 04/23/2025 09:42:18 73.96, 35.59 61.20 04/23/2025 09:43:27 73.94, 36.90 61.20 40.09 69
29 04/23/2025 10:31:43 -74.25,-157.42 118.53 04/23/2025 10:32:49 -74.24,-154.80 118.51 79.36 66



Historial Predications of SNOs between AURA and LANDSAT-8
